TimeMDT,TemperatureF,Dew PointF,Humidity,Sea Level PressureIn,VisibilityMPH,Wind Direction,Wind SpeedMPH,Gust SpeedMPH,PrecipitationIn,Events,Conditions,WindDirDegrees,DateUTC
12:56 AM,38.8,26.1,60,29.92,10.0,SSE,9.2,-,N/A,,Mostly Cloudy,160,2013-03-16 06:56:00
1:56 AM,38.8,24.1,55,29.90,10.0,South,9.2,-,N/A,,Clear,180,2013-03-16 07:56:00
2:56 AM,36.9,25.2,63,29.91,10.0,South,10.4,16.1,N/A,,Mostly Cloudy,180,2013-03-16 08:56:00
3:56 AM,36.0,26.1,67,29.90,10.0,South,9.2,-,N/A,,Overcast,170,2013-03-16 09:56:00
4:56 AM,36.0,27.1,70,29.88,10.0,South,5.8,-,N/A,,Overcast,190,2013-03-16 10:56:00
5:56 AM,34.9,27.1,73,29.89,10.0,Calm,Calm,-,N/A,,Overcast,0,2013-03-16 11:56:00
6:56 AM,31.1,27.1,85,29.94,10.0,SSW,4.6,-,N/A,,Mostly Cloudy,200,2013-03-16 12:56:00
7:56 AM,32.0,28.0,85,29.94,10.0,South,5.8,-,N/A,,Overcast,190,2013-03-16 13:56:00
8:56 AM,30.0,27.1,89,29.95,10.0,SW,5.8,-,N/A,,Partly Cloudy,230,2013-03-16 14:56:00
9:56 AM,32.9,27.1,79,29.94,10.0,Calm,Calm,-,N/A,,Partly Cloudy,0,2013-03-16 15:56:00
10:56 AM,36.0,28.0,73,29.93,10.0,NNW,3.5,-,N/A,,Clear,330,2013-03-16 16:56:00
11:56 AM,37.9,29.1,71,29.92,10.0,North,6.9,-,N/A,,Clear,350,2013-03-16 17:56:00
12:56 PM,41.0,29.1,63,29.91,10.0,North,5.8,-,N/A,,Partly Cloudy,350,2013-03-16 18:56:00
1:56 PM,37.9,28.0,68,29.92,10.0,North,10.4,-,N/A,,Clear,350,2013-03-16 19:56:00
2:56 PM,39.9,27.1,60,29.88,10.0,NNE,8.1,-,N/A,,Clear,30,2013-03-16 20:56:00
3:56 PM,41.0,27.1,58,29.86,10.0,NE,5.8,-,N/A,,Clear,40,2013-03-16 21:56:00
4:56 PM,37.9,28.0,68,29.85,10.0,East,3.5,-,N/A,,Clear,90,2013-03-16 22:56:00
5:56 PM,38.8,26.1,60,29.83,10.0,SSE,9.2,-,N/A,,Scattered Clouds,150,2013-03-16 23:56:00
6:56 PM,36.9,24.1,60,29.84,10.0,SSE,10.4,-,N/A,,Partly Cloudy,160,2013-03-17 00:56:00
7:56 PM,36.9,23.0,57,29.81,10.0,SSE,11.5,-,N/A,,Scattered Clouds,150,2013-03-17 01:56:00
8:56 PM,37.9,24.1,57,29.80,10.0,South,11.5,-,N/A,,Clear,190,2013-03-17 02:56:00
9:56 PM,37.9,24.1,57,29.76,10.0,South,12.7,-,N/A,,Clear,180,2013-03-17 03:56:00
10:56 PM,37.9,23.0,55,29.71,10.0,South,15.0,-,N/A,,Partly Cloudy,170,2013-03-17 04:56:00
11:56 PM,36.9,26.1,65,29.69,10.0,SW,15.0,-,0.00,,Mostly Cloudy,220,2013-03-17 05:56:00